[[{"header":{"parameterUnit":"m.s-1","parameterCategory":1,"la1":30.2991,"la2":30.254,"lo1":-89.0895,"lo2":-89.0444,"dy":0.0017,"dx":0.0017,"nx":28,"ny":28,"refTime":"2025-06-03T09:00:00:Z","depth":0,"parameterNumber":2,"parameterNumberName":"U-component_of_WINDS"},"data":[0,0,0,0,0,0,0,0,0,0,0,0,0,0,0,0,0,0,0,0,0,0,0,0,0,0,0,0,0,0,0,0,0,0,0,0,0,0,0,0,0,0,0,0,0,0,0,0,0,0,0,0,0,0,0,0,0,0,-6.467,-6.467,0,-6.4701,-6.4702,-6.4702,-6.4613,-6.461,-6.4608,-6.4605,-6.4636,-6.464,-6.4643,0,0,0,0,0,0,0,0,0,0,0,0,0,-6.4533,-6.4536,-6.467,-6.467,-6.4671,-6.4701,-6.4702,-6.4702,-6.4614,-6.461,-6.4607,-6.4604,-6.4635,-6.4639,-6.4643,0,0,0,0,0,0,0,0,0,0,0,0,0,-6.4582,-6.4537,-6.467,-6.463,-6.4627,-6.4701,-6.4702,-6.4702,-6.4614,-6.461,-6.4606,-6.4602,-6.4634,-6.4639,-6.4644,-6.4758,0,0,-6.466,-6.4662,0,0,0,0,0,0,0,0,-6.4579,-6.4587,-6.4636,-6.4633,-6.463,-6.4649,-6.4665,-6.4721,-6.4615,-6.4619,-6.4605,-6.46,-6.4644,-6.4648,-6.4663,-6.4759,-6.476,-6.466,-6.4663,-6.4665,-6.4667,0,0,0,0,0,0,0,-6.4576,-6.4585,-6.4682,-6.4637,-6.4633,-6.4611,-6.4613,-6.4675,-6.4654,-6.4618,-6.4612,-6.4617,-6.4641,-6.4658,-6.4663,-6.4761,-6.466,-6.4664,-6.4667,-6.4669,-6.4952,-6.4956,0,0,0,0,0,0,-6.4578,-6.4583,-6.4681,-6.4683,-6.4594,-6.4617,-6.4619,-6.4647,-6.4653,-6.465,-6.4621,-6.4613,-6.4651,-6.4657,-6.4664,-6.4796,-6.4665,-6.467,-6.4673,-6.4947,-6.4953,-6.4958,0,0,0,0,0,0,-6.4575,-6.4587,-6.468,-6.4631,-6.4641,-6.4624,-6.4655,-6.465,-6.4666,-6.4655,-6.4651,-6.4641,-6.4648,-6.4657,-6.4735,-6.4796,-6.4672,-6.4677,-6.4942,-6.4949,-6.4955,-6.5063,0,0,0,0,0,0,-6.4572,-6.4587,-6.463,-6.4633,-6.4644,-6.4751,-6.4659,-6.4653,-6.4675,-6.4666,-6.4673,-6.4671,-6.4646,-6.4728,-6.474,-6.4801,-6.4681,-6.4937,-6.4945,-6.4953,-6.5054,-6.5072,-6.5088,0,0,0,0,0,-6.4567,-6.4659,-6.4632,-6.4645,-6.4698,-6.4755,-6.4761,-6.4731,-6.4681,-6.4723,-6.4716,-6.467,-6.4788,-6.4737,-6.475,-6.4813,-6.4933,-6.4943,-6.4953,-6.5046,-6.5069,-6.5088,0,0,0,0,0,0,-6.4662,-6.4658,-6.4629,-6.4724,-6.4741,-6.4739,-6.4792,-6.4756,-6.4787,-6.4776,-6.4737,-6.474,-6.4825,-6.4827,-6.477,-6.4923,-6.4852,-6.4865,-6.4918,-6.494,-6.4957,-6.4953,-6.4685,0,0,0,0,0,-6.4695,-6.4741,-6.4735,-6.482,-6.483,-6.481,-6.4834,-6.481,-6.4825,-6.4831,-6.4829,-6.4846,-6.4886,-6.4913,-6.495,-6.5055,-6.5055,-6.5105,-6.5122,-6.5136,-6.5147,-6.5202,-6.5224,-6.4991,-6.4991,-6.499,0,0,-6.4761,-6.4765,-6.4796,-6.4839,-6.4849,-6.4898,-6.4816,-6.4872,-6.4908,-6.4839,-6.4912,-6.4913,-6.4928,-6.502,-6.5061,-6.5024,-6.5213,-6.5149,-6.5161,-6.5164,-6.5215,-6.5237,-6.5257,-6.4997,-6.4996,-6.4995,0,0,-6.4907,-6.4915,-6.4986,-6.4998,-6.5014,-6.5001,-6.5018,-6.5023,-6.5021,-6.5094,-6.5044,-6.5087,-6.5158,-6.5171,-6.5187,-6.534,-6.5299,-6.5354,-6.5443,-6.5497,-6.5515,-6.5532,-6.5585,-6.5605,-6.5365,-6.5366,-6.5366,0,-6.4987,-6.5059,-6.5028,-6.5087,-6.5107,-6.5048,-6.512,-6.5133,-6.516,-6.5176,-6.5135,-6.5223,-6.523,-6.5324,-6.5361,-6.5377,-6.5395,-6.5351,-6.5516,-6.5531,-6.5546,-6.5596,-6.5617,-6.5372,-6.5371,-6.5371,-6.537,0,-6.5157,-6.5208,-6.5264,-6.5292,-6.5319,-6.5384,-6.5362,-6.5393,-6.5368,-6.5359,-6.5435,-6.5441,-6.5478,-6.5499,-6.5474,-6.559,-6.5567,-6.5522,-6.5449,-6.5575,-6.5622,-6.5641,-6.5381,-6.5379,-6.5377,-6.5375,0,0,-6.5361,-6.5372,-6.5393,-6.5405,-6.542,-6.5458,-6.5522,-6.5558,-6.5585,-6.5607,-6.5658,-6.5721,-6.5679,-6.5698,-6.5675,-6.5722,-6.5842,-6.5671,-6.5671,-6.5701,-6.5969,-6.6001,-6.6024,-6.5816,-6.582,-6.5823,-6.5967,0,-6.5503,-6.5611,-6.5585,-6.5691,-6.5738,-6.5684,-6.5739,-6.5754,-6.5749,-6.5787,-6.5781,-6.5825,-6.5768,-6.5779,-6.5824,-6.5818,-6.5895,-6.5808,-6.5863,-6.5865,-6.5858,-6.6048,-6.6082,-6.6218,-6.5985,-6.5988,-6.5991,0,-6.5683,-6.5712,-6.5823,-6.5831,-6.5849,-6.5899,-6.5931,-6.5969,-6.5985,-6.5978,-6.6,-6.5967,-6.6029,-6.5959,-6.6044,-6.5985,-6.6006,-6.6007,-6.6012,-6.6013,-6.5933,-6.6053,-6.626,-6.628,-6.6019,-6.6017,-6.6015,0,-6.5818,-6.5886,-6.596,-6.5973,-6.5984,-6.602,-6.6027,-6.6039,-6.6063,-6.6091,-6.6106,-6.6142,-6.6161,-6.6189,-6.6167,-6.6118,-6.6256,-6.6183,-6.625,-6.6251,-6.6279,-6.6277,-6.649,-6.6298,-6.6297,-6.6297,-6.6297,0,-6.5978,-6.6048,-6.6021,-6.6067,-6.6144,-6.6115,-6.6191,-6.6192,-6.6204,-6.6249,-6.6206,-6.6249,-6.6219,-6.626,-6.6244,-6.6316,-6.6325,-6.6321,-6.6315,-6.6323,-6.6323,-6.6334,-6.6323,-6.6302,-6.6301,-6.63,-6.6299,0,-6.6141,-6.6126,-6.6204,-6.6209,-6.6212,-6.6268,-6.6272,-6.6315,-6.6307,-6.6365,-6.6377,-6.6364,-6.641,-6.6392,-6.6441,-6.643,-6.6522,-6.6506,-6.6517,-6.6511,-6.6579,-6.6572,-6.6805,-6.6833,-6.6625,-6.6627,-6.6628,0,-6.6243,-6.6295,-6.6306,-6.6333,-6.6343,-6.6388,-6.6412,-6.6386,-6.6413,-6.6437,-6.6477,-6.6519,-6.6551,-6.6628,-6.6623,-6.666,-6.6643,-6.6722,-6.6648,-6.6654,-6.6641,-6.6638,-6.6642,-6.6735,-6.6738,-6.674,-6.6741,0,-6.6424,-6.6415,-6.6452,-6.6487,-6.6518,-6.6544,-6.6567,-6.6592,-6.6567,-6.66,-6.6646,-6.6672,-6.6722,-6.6765,-6.6798,-6.6805,-6.6769,-6.6766,-6.6783,-6.679,-6.6793,-6.6791,-6.6554,-6.6759,-6.6758,-6.6756,-6.6755,-6.6755,-6.6558,-6.6602,-6.6617,-6.666,-6.6674,-6.6697,-6.6737,-6.6735,-6.6774,-6.6812,-6.6795,-6.6849,-6.6866,-6.6907,-6.6919,-6.6961,-6.693,-6.6955,-6.6961,-6.6967,-6.6975,-6.6789,-6.6967,-6.6967,-6.6966,-6.6966,-6.6965,0,-6.6736,-6.6743,-6.6783,-6.6816,-6.6851,-6.6816,-6.6839,-6.687,-6.6918,-6.6936,-6.6969,-6.7023,-6.7065,-6.7065,-6.7103,-6.7137,-6.7121,-6.7148,-6.7143,-6.7145,-6.7002,-6.6982,-6.7159,-6.7159,-6.7159,-6.7159,-6.7159,-6.7159,-6.6832,-6.6904,-6.6897,-6.6977,-6.6984,-6.7036,-6.7053,-6.7073,-6.7088,-6.715,-6.7184,-6.7184,-6.7195,-6.7235,-6.7271,-6.727,-6.7285,-6.7317,-6.731,-6.7175,-6.7156,-6.7137,-6.7118,-6.7322,-6.7322,-6.745,-6.7451,-6.7452]},{"header":{"parameterUnit":"m.s-1","parameterCategory":1,"la1":30.2991,"la2":30.254,"lo1":-89.0895,"lo2":-89.0444,"dy":0.0017,"dx":0.0017,"nx":28,"ny":28,"refTime":"2025-06-03T09:00:00:Z","depth":0,"parameterNumber":3,"parameterNumberName":"V-component_of_WINDS"},"data":[0,0,0,0,0,0,0,0,0,0,0,0,0,0,0,0,0,0,0,0,0,0,0,0,0,0,0,0,0,0,0,0,0,0,0,0,0,0,0,0,0,0,0,0,0,0,0,0,0,0,0,0,0,0,0,0,0,0,1.7349,1.7349,0,1.7401,1.7402,1.7403,1.7492,1.7494,1.7496,1.7497,1.7545,1.7545,1.7544,0,0,0,0,0,0,0,0,0,0,0,0,0,1.7322,1.7322,1.7349,1.7349,1.735,1.7401,1.7402,1.7403,1.7492,1.7494,1.7496,1.7498,1.7545,1.7545,1.7544,0,0,0,0,0,0,0,0,0,0,0,0,0,1.735,1.7322,1.7349,1.7401,1.7406,1.7401,1.7402,1.7403,1.7491,1.7494,1.7497,1.7499,1.7545,1.7545,1.7544,1.7491,0,0,1.7543,1.7543,0,0,0,0,0,0,0,0,1.7348,1.735,1.7393,1.7397,1.7403,1.7443,1.741,1.7432,1.7491,1.7459,1.7497,1.75,1.7509,1.7511,1.7515,1.7493,1.7495,1.7543,1.7543,1.7542,1.7542,0,0,0,0,0,0,0,1.7346,1.7349,1.7369,1.7393,1.74,1.742,1.7427,1.7415,1.7469,1.7462,1.7469,1.7474,1.7512,1.7516,1.7517,1.7496,1.7543,1.7542,1.7542,1.7542,1.7433,1.743,0,0,0,0,0,0,1.7337,1.7346,1.7368,1.7371,1.7381,1.7419,1.7427,1.7428,1.7469,1.7478,1.7472,1.7478,1.7515,1.7518,1.7519,1.746,1.7542,1.7542,1.7542,1.7435,1.7432,1.7429,0,0,0,0,0,0,1.7336,1.7338,1.7366,1.7361,1.7366,1.7417,1.7417,1.7427,1.7431,1.7477,1.7486,1.7466,1.7517,1.752,1.7498,1.7463,1.7542,1.7541,1.7438,1.7434,1.7431,1.734,0,0,0,0,0,0,1.7335,1.7337,1.7318,1.736,1.7366,1.7344,1.7415,1.7426,1.7431,1.7439,1.7474,1.7482,1.7519,1.7498,1.7497,1.7463,1.7541,1.7442,1.7437,1.7432,1.7346,1.7333,1.7322,0,0,0,0,0,1.7334,1.7289,1.7317,1.7319,1.7343,1.7342,1.7345,1.7392,1.7428,1.7408,1.7438,1.748,1.7467,1.7495,1.7495,1.746,1.7444,1.7438,1.7432,1.7351,1.7336,1.7322,0,0,0,0,0,0,1.7239,1.7295,1.7327,1.7294,1.7313,1.7357,1.7334,1.7373,1.7381,1.7388,1.7444,1.745,1.7421,1.7439,1.7469,1.7411,1.7462,1.7456,1.7401,1.7386,1.7374,1.737,1.7541,0,0,0,0,0,1.7215,1.7211,1.726,1.7226,1.7234,1.7282,1.7284,1.7318,1.7339,1.7347,1.7374,1.7391,1.7392,1.739,1.7392,1.735,1.7358,1.7326,1.7314,1.7304,1.7297,1.7277,1.7263,1.741,1.741,1.741,0,0,1.7164,1.7194,1.7188,1.7208,1.7227,1.722,1.7288,1.7278,1.7274,1.7344,1.7326,1.7347,1.737,1.7338,1.7325,1.7351,1.7259,1.7296,1.7288,1.7287,1.7269,1.7255,1.7243,1.7406,1.7407,1.7407,0,0,1.7068,1.7091,1.7066,1.7084,1.7113,1.7145,1.7139,1.7178,1.7196,1.7179,1.7232,1.7227,1.7225,1.7239,1.7246,1.7158,1.7197,1.7157,1.7094,1.7073,1.7062,1.7052,1.702,1.7008,1.7151,1.7151,1.715,0,1.7001,1.6995,1.7048,1.7035,1.7042,1.7109,1.7084,1.7098,1.7125,1.7127,1.7158,1.7158,1.7178,1.715,1.7129,1.7133,1.7127,1.7153,1.7059,1.705,1.7041,1.7012,1.7,1.7145,1.7146,1.7147,1.7147,0,1.6911,1.6906,1.6882,1.6909,1.6914,1.6894,1.6944,1.6942,1.6976,1.7005,1.6987,1.7014,1.7023,1.7019,1.7051,1.6996,1.7012,1.705,1.7102,1.7021,1.6995,1.6984,1.7138,1.714,1.7142,1.7143,0,0,1.6755,1.6814,1.6804,1.6818,1.6855,1.6851,1.6835,1.6846,1.6843,1.686,1.6847,1.6845,1.6881,1.6889,1.6924,1.6906,1.6834,1.6946,1.6948,1.6924,1.6775,1.6746,1.6732,1.6861,1.686,1.6858,1.6773,0,1.6667,1.6645,1.6693,1.6658,1.6654,1.6718,1.6704,1.6725,1.6752,1.6751,1.6781,1.6779,1.6826,1.6832,1.6817,1.6846,1.6805,1.6853,1.6849,1.6848,1.6841,1.6718,1.6687,1.6606,1.6763,1.6761,1.676,0,1.6561,1.6574,1.654,1.6581,1.6581,1.6567,1.6582,1.6581,1.6606,1.6627,1.6637,1.6678,1.6664,1.6716,1.6697,1.6728,1.673,1.6744,1.6742,1.6743,1.6799,1.6715,1.6581,1.6569,1.6744,1.6745,1.6747,0,1.6451,1.646,1.6442,1.6451,1.6498,1.6487,1.6505,1.6533,1.6537,1.655,1.6553,1.6562,1.6567,1.6574,1.6616,1.665,1.6592,1.6647,1.6608,1.6607,1.6592,1.6593,1.6456,1.6594,1.6594,1.6594,1.6595,0,1.6347,1.6323,1.6393,1.6381,1.6357,1.6412,1.6385,1.641,1.6434,1.6427,1.6483,1.6475,1.6533,1.6531,1.6564,1.6543,1.6545,1.6561,1.657,1.6556,1.6553,1.6556,1.6563,1.6591,1.6592,1.6592,1.6593,0,1.6219,1.6266,1.6249,1.6296,1.6307,1.6286,1.6326,1.6316,1.6348,1.6338,1.6339,1.6388,1.6389,1.6433,1.6442,1.6465,1.643,1.6449,1.6422,1.6428,1.6387,1.639,1.6247,1.6231,1.6379,1.6377,1.6376,0,1.615,1.6134,1.6179,1.618,1.6197,1.6196,1.6202,1.6256,1.6258,1.6286,1.6273,1.6279,1.6286,1.6284,1.632,1.6327,1.6347,1.6296,1.6348,1.6335,1.6346,1.6346,1.6345,1.6285,1.6283,1.6282,1.628,0,1.6021,1.6046,1.6052,1.6067,1.6072,1.6086,1.6103,1.61,1.6159,1.6159,1.6162,1.6168,1.6179,1.6184,1.6198,1.6216,1.6257,1.6264,1.6256,1.624,1.6225,1.6233,1.6391,1.6267,1.6268,1.6269,1.627,1.627,1.5921,1.591,1.5941,1.5946,1.5966,1.598,1.5974,1.6006,1.601,1.6025,1.6056,1.6054,1.6079,1.6103,1.6117,1.6116,1.6141,1.6128,1.6125,1.6121,1.6113,1.6226,1.6118,1.6119,1.6119,1.612,1.612,0,1.5796,1.5819,1.5824,1.5847,1.5852,1.5893,1.5914,1.5915,1.5913,1.5934,1.5941,1.5945,1.595,1.5986,1.5996,1.5987,1.6006,1.5988,1.5988,1.5992,1.609,1.6097,1.5972,1.5972,1.5972,1.5972,1.5972,1.5972,1.5731,1.5715,1.5742,1.5736,1.5759,1.576,1.5768,1.5782,1.58,1.5801,1.5807,1.5832,1.5859,1.5871,1.5878,1.5888,1.5889,1.5863,1.588,1.5971,1.5985,1.5998,1.6005,1.5863,1.5863,1.5782,1.5781,1.5781]}]]